Orbital Elements at Epoch 2459200.5 (2020-Dec-17.0) TDB
Reference: JPL 21 (heliocentric ecliptic J2000)
Element | Value | Uncertainty (1-sigma) | Units |
e | .1600115730383924 | 4.3148e-08 | |
a | 2.69463894691625 | 1.7275e-08 | au |
q | 2.263465530249663 | 1.1667e-07 | au |
i | 13.32592252285751 | 4.6693e-06 | deg |
node | 144.607308795854 | 2.112e-05 | deg |
peri | 103.8981119235659 | 2.6231e-05 | deg |
M | 269.4550497225678 | 1.808e-05 | deg |
tp | 2459606.860077534391 (2022-Jan-27.36007753) | 8.2887e-05 | TDB |
period | 1615.65749900072 4.42 | 1.5537e-05 4.254e-08 | d yr |
n | .2228195024147502 | 2.1427e-09 | deg/d |
Q | 3.125812363582836 | 2.0039e-08 | au |
|
| | Orbit Determination Parameters
Additional Information
|